• In Uzbekistan
  • List of Countries
  • For 7 days
  • Water Temperature
  • Satellite Maps
  • Weather Map
  • Weather Widgets
  • user-avatar
    Login

    Hourly Weather Etchmiadzin

    Today, 20 February, Monday

    Time Temperature Precipitation Wind Pressure Humidity
    00:00 -9°C° 0 mm 1 mps 689 mmHg 89%
    01:00 -10°C° 0 mm 1 mps 689 mmHg 89%
    02:00 -10°C° 0 mm 1 mps 689 mmHg 89%
    03:00 -11°C° 0 mm 1 mps 688 mmHg 89%
    04:00 -11°C° 0 mm 1 mps 688 mmHg 89%
    05:00 -11°C° 0 mm 1 mps 688 mmHg 89%
    06:00 -11°C° 0 mm 1 mps 688 mmHg 90%
    07:00 -7°C° 0 mm 1 mps 689 mmHg 87%
    08:00 -2°C° 0 mm 1 mps 690 mmHg 85%
    09:00 +1°C° 0 mm 0 mps 691 mmHg 81%
    10:00 +3°C° 0 mm 1 mps 691 mmHg 81%
    11:00 +5°C° 0 mm 1 mps 690 mmHg 82%
    12:00 +6°C° 0 mm 1 mps 690 mmHg 82%
    13:00 +6°C° 0 mm 1 mps 689 mmHg 83%
    14:00 +6°C° 0 mm 1 mps 689 mmHg 84%
    15:00 +6°C° 0 mm 1 mps 689 mmHg 85%
    16:00 +2°C° 0 mm 1 mps 688 mmHg 87%
    17:00 -1°C° 0 mm 1 mps 687 mmHg 89%
    18:00 -6°C° 0 mm 1 mps 686 mmHg 91%
    19:00 -7°C° 0 mm 1 mps 686 mmHg 90%
    20:00 -7°C° 0 mm 1 mps 686 mmHg 89%
    21:00 -8°C° 0 mm 1 mps 685 mmHg 88%
    22:00 -8°C° 0 mm 1 mps 685 mmHg 87%
    23:00 -8°C° 0 mm 1 mps 685 mmHg 87%

    Tomorrow, 21 February, Tuesday

    Time Temperature Precipitation Wind Pressure Humidity
    00:00 -9°C° 0 mm 1 mps 685 mmHg 87%
    01:00 -9°C° 0 mm 1 mps 685 mmHg 86%
    02:00 -9°C° 0 mm 1 mps 684 mmHg 86%
    03:00 -9°C° 0 mm 1 mps 684 mmHg 85%
    04:00 -9°C° 0 mm 1 mps 684 mmHg 84%
    05:00 -9°C° 0 mm 1 mps 684 mmHg 83%
    06:00 -9°C° 0 mm 1 mps 684 mmHg 83%
    07:00 -6°C° 0 mm 1 mps 685 mmHg 80%
    08:00 -1°C° 0 mm 1 mps 685 mmHg 78%
    09:00 +2°C° 0 mm 1 mps 686 mmHg 76%
    10:00 +4°C° 0 mm 1 mps 686 mmHg 75%
    11:00 +5°C° 0 mm 1 mps 686 mmHg 73%
    12:00 +6°C° 0 mm 1 mps 685 mmHg 72%
    13:00 +6°C° 0 mm 1 mps 685 mmHg 73%
    14:00 +6°C° 0 mm 1 mps 684 mmHg 75%
    15:00 +6°C° 0 mm 1 mps 684 mmHg 76%
    16:00 +2°C° 0 mm 1 mps 683 mmHg 80%
    17:00 -2°C° 0 mm 1 mps 682 mmHg 83%
    18:00 -7°C° 0 mm 1 mps 681 mmHg 86%
    19:00 -7°C° 0 mm 1 mps 682 mmHg 86%
    20:00 -8°C° 0 mm 1 mps 682 mmHg 85%
    21:00 -9°C° 0 mm 1 mps 682 mmHg 84%
    22:00 -9°C° 0 mm 1 mps 682 mmHg 83%
    23:00 -9°C° 0 mm 1 mps 682 mmHg 81%

    Day after tomorrow, 22 February, Wednesday

    Time Temperature Precipitation Wind Pressure Humidity
    00:00 -9°C° 0 mm 1 mps 683 mmHg 79%
    01:00 -8°C° 0 mm 1 mps 683 mmHg 79%
    02:00 -8°C° 0 mm 1 mps 683 mmHg 79%
    03:00 -7°C° 0 mm 1 mps 683 mmHg 78%
    04:00 -7°C° 0 mm 1 mps 683 mmHg 78%
    05:00 -8°C° 0 mm 1 mps 683 mmHg 78%
    06:00 -8°C° 0 mm 1 mps 683 mmHg 78%
    07:00 -4°C° 0 mm 1 mps 684 mmHg 77%
    08:00 -1°C° 0 mm 1 mps 685 mmHg 75%
    09:00 +2°C° 0 mm 1 mps 685 mmHg 73%
    10:00 +3°C° 0 mm 1 mps 685 mmHg 73%
    11:00 +3°C° 0 mm 2 mps 685 mmHg 73%
    12:00 +4°C° 0 mm 2 mps 684 mmHg 73%
    13:00 +4°C° 0 mm 2 mps 684 mmHg 75%
    14:00 +4°C° 0 mm 2 mps 684 mmHg 77%
    15:00 +4°C° 0 mm 2 mps 683 mmHg 79%
    16:00 +2°C° 0 mm 2 mps 683 mmHg 82%
    17:00 -1°C° 0 mm 2 mps 683 mmHg 85%
    18:00 -4°C° 0 mm 2 mps 683 mmHg 88%
    19:00 -4°C° 0.1 mm 2 mps 683 mmHg 87%
    20:00 -4°C° 0.1 mm 2 mps 684 mmHg 86%
    21:00 -3°C° 0.1 mm 1 mps 684 mmHg 86%
    22:00 -2°C° 0.1 mm 1 mps 684 mmHg 85%
    23:00 -2°C° 0.1 mm 1 mps 684 mmHg 85%

    23 February, Thursday

    Time Temperature Precipitation Wind Pressure Humidity
    00:00 -1°C° 0.1 mm 1 mps 684 mmHg 84%
    01:00 -1°C° 0.1 mm 1 mps 684 mmHg 85%
    02:00 -1°C° 0.1 mm 1 mps 685 mmHg 85%
    03:00 0°C° 0.1 mm 1 mps 685 mmHg 85%
    04:00 0°C° 0.2 mm 1 mps 685 mmHg 86%
    05:00 0°C° 0.2 mm 1 mps 685 mmHg 86%
    06:00 0°C° 0.2 mm 1 mps 686 mmHg 86%
    07:00 +1°C° 0.1 mm 1 mps 686 mmHg 85%
    08:00 +2°C° 0.1 mm 1 mps 687 mmHg 83%
    09:00 +3°C° 0.1 mm 1 mps 687 mmHg 81%
    10:00 +4°C° 0 mm 1 mps 687 mmHg 80%
    11:00 +5°C° 0 mm 1 mps 687 mmHg 80%
    12:00 +6°C° 0 mm 1 mps 687 mmHg 79%
    13:00 +6°C° 0 mm 1 mps 687 mmHg 81%
    14:00 +5°C° 0 mm 2 mps 687 mmHg 82%
    15:00 +5°C° 0 mm 2 mps 687 mmHg 84%
    16:00 +3°C° 0 mm 2 mps 686 mmHg 86%
    17:00 +1°C° 0 mm 1 mps 686 mmHg 89%
    18:00 -2°C° 0 mm 1 mps 686 mmHg 92%
    19:00 -2°C° 0 mm 1 mps 687 mmHg 90%
    20:00 -2°C° 0 mm 1 mps 687 mmHg 89%
    21:00 -3°C° 0 mm 1 mps 687 mmHg 87%
    22:00 -3°C° 0 mm 1 mps 688 mmHg 86%
    23:00 -3°C° 0 mm 1 mps 688 mmHg 85%

    24 February, Friday

    Time Temperature Precipitation Wind Pressure Humidity
    00:00 -4°C° 0 mm 1 mps 688 mmHg 84%
    01:00 -4°C° 0 mm 1 mps 688 mmHg 84%
    02:00 -4°C° 0 mm 1 mps 687 mmHg 83%
    03:00 -4°C° 0 mm 1 mps 687 mmHg 83%
    04:00 -4°C° 0 mm 1 mps 687 mmHg 82%
    05:00 -6°C° 0 mm 1 mps 687 mmHg 82%
    06:00 -6°C° 0 mm 1 mps 687 mmHg 81%
    07:00 -2°C° 0 mm 1 mps 688 mmHg 79%
    08:00 +1°C° 0 mm 1 mps 689 mmHg 77%
    09:00 +4°C° 0 mm 1 mps 690 mmHg 74%
    10:00 +5°C° 0 mm 1 mps 689 mmHg 75%
    11:00 +7°C° 0 mm 1 mps 689 mmHg 76%
    12:00 +8°C° 0 mm 1 mps 689 mmHg 77%
    13:00 +8°C° 0 mm 1 mps 688 mmHg 79%
    14:00 +8°C° 0 mm 1 mps 688 mmHg 80%
    15:00 +8°C° 0 mm 1 mps 688 mmHg 82%
    16:00 +5°C° 0 mm 1 mps 687 mmHg 84%
    17:00 +1°C° 0 mm 1 mps 686 mmHg 87%
    18:00 -2°C° 0 mm 1 mps 686 mmHg 89%
    19:00 -3°C° 0 mm 1 mps 686 mmHg 89%
    20:00 -3°C° 0 mm 1 mps 687 mmHg 88%
    21:00 -4°C° 0 mm 1 mps 687 mmHg 87%
    22:00 -4°C° 0 mm 1 mps 687 mmHg 86%
    23:00 -4°C° 0 mm 1 mps 687 mmHg 85%

    25 February, Saturday

    Time Temperature Precipitation Wind Pressure Humidity
    00:00 -4°C° 0 mm 1 mps 687 mmHg 84%
    01:00 -4°C° 0 mm 1 mps 687 mmHg 83%
    02:00 -4°C° 0 mm 1 mps 687 mmHg 82%
    03:00 -4°C° 0 mm 1 mps 687 mmHg 81%
    04:00 -4°C° 0 mm 1 mps 687 mmHg 80%
    05:00 -4°C° 0 mm 1 mps 687 mmHg 79%
    06:00 -4°C° 0 mm 1 mps 687 mmHg 78%
    07:00 -1°C° 0 mm 1 mps 688 mmHg 76%
    08:00 +2°C° 0 mm 1 mps 688 mmHg 74%
    09:00 +5°C° 0 mm 1 mps 689 mmHg 72%
    10:00 +6°C° 0 mm 1 mps 688 mmHg 73%
    11:00 +7°C° 0 mm 1 mps 688 mmHg 74%
    12:00 +7°C° 0 mm 2 mps 687 mmHg 75%
    13:00 +7°C° 0 mm 2 mps 686 mmHg 77%
    14:00 +7°C° 0 mm 2 mps 686 mmHg 78%
    15:00 +7°C° 0 mm 2 mps 685 mmHg 80%
    16:00 +5°C° 0 mm 2 mps 685 mmHg 81%
    17:00 +2°C° 0 mm 2 mps 685 mmHg 83%
    18:00 -1°C° 0 mm 2 mps 684 mmHg 85%
    19:00 -2°C° 0 mm 2 mps 684 mmHg 84%
    20:00 -2°C° 0 mm 2 mps 684 mmHg 84%
    21:00 -1°C° 0 mm 1 mps 684 mmHg 84%
    22:00 -1°C° 0 mm 1 mps 684 mmHg 84%
    23:00 -1°C° 0 mm 1 mps 684 mmHg 84%
    Show more